Total_Precipitation_Accumulation
0.01 0.02 0.10 0.12 0.11 0.10 0.12 0.15 0.16 0.17 0.17 0.17 0.16 0.14 0.13 0.12 0.10 0.11 0.13 0.12 0.09 0.08 0.08 0.10 0.12 0.16 0.16 0.20 0.25 0.31 0.41 0.48 0.38 0.30 0.32 0.31 0.25 0.31 0.49 0.53 0.43 0.43 0.36
0.01 0.01 0.07 0.09 0.08 0.07 0.10 0.14 0.14 0.15 0.16 0.16 0.16 0.15 0.16 0.13 0.13 0.12 0.09 0.08 0.05 0.07 0.08 0.08 0.13 0.15 0.17 0.22 0.28 0.34 0.39 0.43 0.40 0.38 0.45 0.44 0.33 0.41 0.52 0.49 0.45 0.43 0.35
0.00 0.00 0.04 0.06 0.06 0.06 0.09 0.13 0.15 0.15 0.14 0.17 0.19 0.18 0.20 0.16 0.12 0.08 0.06 0.05 0.05 0.06 0.11 0.12 0.13 0.13 0.18 0.23 0.28 0.36 0.37 0.43 0.48 0.46 0.54 0.64 0.43 0.38 0.42 0.43 0.32 0.31 0.29
0.00 0.00 0.01 0.04 0.06 0.08 0.11 0.17 0.18 0.17 0.14 0.17 0.16 0.16 0.16 0.14 0.09 0.11 0.12 0.06 0.04 0.05 0.07 0.08 0.08 0.12 0.20 0.26 0.31 0.33 0.33 0.43 0.52 0.43 0.50 0.61 0.53 0.38 0.45 0.54 0.41 0.34 0.31
0.00 0.01 0.04 0.08 0.08 0.10 0.17 0.29 0.29 0.25 0.19 0.12 0.11 0.11 0.11 0.09 0.09 0.16 0.09 0.04 0.04 0.04 0.05 0.08 0.10 0.11 0.20 0.27 0.29 0.29 0.34 0.48 0.52 0.41 0.46 0.52 0.61 0.52 0.50 0.57 0.52 0.39 0.30
0.03 0.04 0.13 0.26 0.21 0.20 0.25 0.39 0.33 0.27 0.24 0.12 0.10 0.09 0.09 0.07 0.09 0.11 0.08 0.06 0.03 0.02 0.03 0.06 0.10 0.12 0.20 0.26 0.28 0.34 0.45 0.48 0.43 0.51 0.52 0.51 0.57 0.54 0.45 0.49 0.42 0.33 0.27
0.11 0.10 0.20 0.39 0.33 0.28 0.31 0.41 0.37 0.32 0.31 0.17 0.11 0.10 0.09 0.07 0.09 0.10 0.12 0.07 0.03 0.01 0.02 0.03 0.06 0.10 0.16 0.22 0.27 0.35 0.43 0.34 0.42 0.53 0.45 0.51 0.52 0.46 0.33 0.33 0.37 0.36 0.35
0.35 0.24 0.23 0.37 0.34 0.31 0.37 0.45 0.47 0.39 0.32 0.19 0.15 0.14 0.11 0.10 0.11 0.12 0.12 0.06 0.02 0.01 0.02 0.02 0.03 0.06 0.11 0.17 0.23 0.28 0.32 0.27 0.28 0.37 0.37 0.43 0.46 0.43 0.28 0.25 0.30 0.32 0.40
0.72 0.56 0.42 0.37 0.33 0.35 0.44 0.47 0.62 0.65 0.46 0.28 0.22 0.18 0.15 0.12 0.12 0.12 0.08 0.04 0.02 0.02 0.02 0.01 0.01 0.03 0.08 0.13 0.17 0.21 0.24 0.24 0.28 0.29 0.26 0.29 0.35 0.29 0.23 0.21 0.24 0.31 0.42
0.71 0.68 0.62 0.57 0.52 0.52 0.56 0.68 0.90 1.00 0.80 0.50 0.35 0.27 0.22 0.15 0.13 0.12 0.07 0.04 0.02 0.02 0.01 0.01 0.00 0.01 0.04 0.08 0.11 0.14 0.17 0.18 0.25 0.22 0.19 0.18 0.24 0.15 0.15 0.15 0.16 0.23 0.35
0.67 0.67 0.66 0.68 0.70 0.79 0.81 0.87 1.09 1.20 1.10 0.73 0.50 0.41 0.29 0.18 0.24 0.23 0.11 0.07 0.04 0.03 0.02 0.01 0.01 0.02 0.03 0.05 0.09 0.12 0.11 0.13 0.19 0.21 0.16 0.15 0.18 0.10 0.06 0.06 0.08 0.13 0.20
0.63 0.60 0.61 0.60 0.61 0.67 0.71 1.00 1.20 1.09 1.13 0.82 0.73 0.59 0.46 0.43 0.42 0.34 0.22 0.16 0.11 0.07 0.04 0.03 0.02 0.02 0.02 0.01 0.03 0.05 0.04 0.09 0.14 0.15 0.10 0.13 0.15 0.09 0.04 0.03 0.03 0.05 0.07
0.54 0.48 0.45 0.48 0.48 0.52 0.61 0.77 1.02 1.24 1.27 1.20 1.10 0.93 0.80 0.62 0.38 0.28 0.24 0.21 0.16 0.14 0.09 0.07 0.04 0.02 0.01 0.00 0.01 0.01 0.03 0.08 0.11 0.10 0.09 0.12 0.14 0.09 0.04 0.04 0.02 0.03 0.03
0.56 0.56 0.46 0.41 0.44 0.44 0.47 0.61 0.82 1.01 1.15 1.15 1.03 0.88 0.97 0.84 0.56 0.39 0.40 0.38 0.28 0.22 0.17 0.11 0.05 0.02 0.01 0.01 0.02 0.01 0.02 0.04 0.09 0.10 0.09 0.12 0.15 0.12 0.08 0.06 0.04 0.02 0.03
0.56 0.62 0.56 0.43 0.37 0.42 0.45 0.50 0.58 0.80 0.94 0.91 1.00 0.94 0.94 0.86 0.65 0.50 0.46 0.55 0.46 0.33 0.25 0.17 0.09 0.05 0.02 0.01 0.01 0.01 0.01 0.03 0.04 0.07 0.09 0.15 0.21 0.18 0.15 0.13 0.09 0.04 0.05
0.50 0.53 0.54 0.49 0.47 0.45 0.43 0.43 0.48 0.53 0.69 0.70 0.69 0.66 0.83 0.88 0.79 0.71 0.56 0.61 0.70 0.64 0.47 0.28 0.17 0.08 0.04 0.02 0.01 0.01 0.01 0.01 0.01 0.03 0.04 0.09 0.18 0.20 0.22 0.26 0.21 0.12 0.10
0.44 0.44 0.47 0.54 0.58 0.57 0.57 0.57 0.54 0.55 0.57 0.63 0.69 0.69 0.79 0.86 0.90 0.86 0.64 0.59 0.68 0.81 0.72 0.48 0.28 0.15 0.07 0.03 0.02 0.02 0.02 0.01 0.01 0.01 0.02 0.03 0.09 0.19 0.29 0.40 0.40 0.29 0.20
0.34 0.33 0.38 0.45 0.52 0.58 0.62 0.66 0.62 0.65 0.67 0.64 0.68 0.66 0.69 0.81 0.93 0.96 0.82 0.71 0.77 0.86 0.92 0.85 0.56 0.32 0.16 0.07 0.04 0.03 0.03 0.02 0.02 0.01 0.02 0.02 0.04 0.09 0.20 0.31 0.45 0.56 0.41
0.27 0.26 0.29 0.34 0.41 0.48 0.57 0.65 0.67 0.69 0.82 0.89 0.77 0.61 0.68 0.81 0.89 1.04 1.05 0.97 0.93 1.00 0.98 0.96 0.78 0.51 0.30 0.17 0.08 0.06 0.04 0.02 0.02 0.02 0.01 0.01 0.02 0.03 0.07 0.10 0.21 0.31 0.31
0.24 0.23 0.25 0.31 0.33 0.36 0.47 0.62 0.71 0.68 0.77 0.98 1.01 0.96 1.00 1.06 1.13 1.25 1.29 1.23 1.17 1.15 1.05 1.08 1.08 0.74 0.48 0.33 0.19 0.11 0.07 0.04 0.03 0.02 0.01 0.01 0.02 0.01 0.01 0.02 0.07 0.06 0.11
0.17 0.19 0.23 0.29 0.32 0.33 0.41 0.52 0.59 0.68 0.86 1.06 1.13 1.18 1.30 1.32 1.34 1.46 1.54 1.54 1.41 1.24 1.19 1.26 1.41 1.19 0.81 0.55 0.42 0.28 0.16 0.08 0.05 0.04 0.03 0.02 0.01 0.01 0.00 0.01 0.03 0.04 0.04
0.10 0.12 0.17 0.26 0.35 0.41 0.46 0.60 0.75 0.97 1.08 1.21 1.36 1.35 1.37 1.42 1.44 1.50 1.68 1.75 1.64 1.55 1.58 1.50 1.55 1.57 1.25 0.89 0.77 0.77 0.55 0.35 0.15 0.07 0.05 0.03 0.03 0.03 0.02 0.02 0.02 0.02 0.02
0.08 0.10 0.17 0.31 0.50 0.70 0.81 1.04 1.32 1.56 1.62 1.54 1.54 1.57 1.56 1.59 1.62 1.59 1.69 1.86 1.77 1.69 1.66 1.75 1.87 1.97 1.76 1.42 1.12 1.05 0.82 0.66 0.54 0.21 0.10 0.08 0.07 0.06 0.07 0.05 0.04 0.04 0.03
0.12 0.20 0.36 0.60 0.90 1.16 1.31 1.51 1.71 1.82 1.85 1.77 1.79 1.76 1.74 1.65 1.56 1.53 1.64 1.83 1.94 1.99 1.98 2.01 1.92 2.05 2.08 1.80 1.63 1.26 0.95 0.76 0.75 0.59 0.32 0.17 0.13 0.09 0.09 0.09 0.07 0.07 0.05
0.39 0.57 0.86 1.12 1.37 1.52 1.58 1.67 1.87 2.02 2.17 2.18 2.06 1.91 1.79 1.73 1.65 1.55 1.59 1.65 1.68 1.73 1.82 1.93 1.92 2.02 2.02 2.01 1.92 1.71 1.40 1.12 0.74 0.64 0.63 0.45 0.26 0.14 0.10 0.10 0.12 0.11 0.09
0.82 1.00 1.20 1.35 1.50 1.50 1.51 1.57 1.70 1.89 2.05 2.06 2.08 2.04 1.89 1.73 1.62 1.53 1.48 1.56 1.58 1.57 1.66 1.75 1.81 1.94 2.00 2.01 1.96 1.76 1.56 1.41 1.18 0.92 0.74 0.64 0.56 0.34 0.21 0.16 0.15 0.18 0.19